Weather in Sombor

Serbia     45°46′25″N   19°06′46″E
temp.,
°C
wind,
m/s
gust,
m/s
humid.,
%
clouds,
%
prec.,
mm/h
press.,
hPa
HPBL,
m
9 december, thu
thu901:00+1ese51080100 0.0 1006284
04:00+2e5884100 1.2 1005259
07:00+3e51284100 2.6 1003314
10:00+5ese61566100 0.0 1002412
13:00+6e3765100 0.2 999209
16:00+4sw4689100 0.2 1001274
19:00+2wsw61093100 0.2 1005451
22:00+1w5989100 0.0 1007556
10 december, fri
fri1001:00+2w3589100 0.0 1008362
04:00+1wnw229298 0.0 100940
07:000nnw2292100 0.0 100822
10:00+2nne2383100 0.0 1008435
13:00+3nne1279100 0.0 1006440
16:00+2e228599 0.1 100576
19:000se239886 0.1 1006117
22:00+1se2393100 0.0 1006254
11 december, sat
sat1101:00+2ene2392100 0.0 1007123
04:00+2nne3592100 0.1 1008238
07:00+2ne4890100 0.1 1009359
10:00+2nne61080100 0.0 1011423
13:00+4n6968100 0.0 1012647
16:00+3n61171100 0.0 1013593
19:00+2n6137884 0.0 1014562
22:00+1n7168397 0.0 1015560
12 december, sun
sun1201:00+2nnw71681100 0.0 1015650
04:00+1nnw91783100 0.0 1016777
07:00+2nnw9177869 0.0 1016761
10:00+2nnw101773100 0.0 1018847
13:00+4nnw10156668 0.0 1016950
16:00+2nnw101771100 0.0 1017879
19:00+2nnw91672100 0.0 1019847
22:00+2nnw91572100 0.0 1019903
13 december, mon
mon1301:00+1nnw91688100 0.1 1020872
04:00+1nnw81596100 1.0 1020822
07:00+1nw61497100 3.3 1021748
10:00+1nw61297100 1.1 1021643
13:00+1nw61197100 1.9 1021652
16:00+1nw51198100 0.9 1021539
19:00+1nw51198100 1.4 1022453
22:000nw4998100 1.1 1022363